Regional Weather Roundup
Issued by NWS

Home | Current Version | Previous Version | Graphics & Text | Print | Product List | Glossary On
Versions: 1 2 3 4 5 6 7 8 9 10 11 12 13 14 15 16 17 18 19 20 21 22 23 24 25 26 27 28 29 30 31 32 33 34 35 36 37 38 39 40 41 42 43 44 45 46 47 48 49 50
554
ASUS43 KFSD 241310
RWRSD

WEATHER ROUNDUP FOR SOUTH DAKOTA
NATIONAL WEATHER SERVICE SIOUX FALLS SD
800 AM CDT MON JUL 24 2017

NOTE: "FAIR" INDICATES FEW OR NO CLOUDS BELOW 12,000 FEET WITH NO
SIGNIFICANT WEATHER AND/OR OBSTRUCTIONS TO VISIBILITY.


SDZ001>005-009-010-012>017-241400-
NORTHWEST AND NORTH CENTRAL SOUTH DAKOTA

CITY           SKY/WX    TMP DP  RH WIND       PRES   REMARKS
BUFFALO          N/A     71  55  56 S10G22    29.82R
FAITH            N/A     65  60  84 E8        29.84F
MOBRIDGE       CLOUDY    69  61  75 S14       29.91F
$$

SDZ012>016-024>037-041>051-057-063-072>074-241400-
SOUTHWEST AND SOUTH CENTRAL SOUTH DAKOTA

CITY           SKY/WX    TMP DP  RH WIND       PRES   REMARKS
RAPID CTY ARPT SUNNY     68  54  60 W5        29.90S
PIERRE         SUNNY     68  58  70 SE12      29.92S
CUSTER         SUNNY     64  49  57 CALM      30.06R
ELLSWORTH AFB  SUNNY     69  56  63 W3        29.90R
PHILIP         CLOUDY    70  61  73 SE12      29.89F
PINE RIDGE     MOSUNNY   72  59  63 VRB3      29.94F
SPEARFISH      FAIR      64  57  77 CALM      29.93R
WINNER         FAIR      72  58  61 S16       29.97S
$$

SDZ004>011-016>023-039-040-241400-
NORTHEAST SOUTH DAKOTA

CITY           SKY/WX    TMP DP  RH WIND       PRES   REMARKS
ABERDEEN       CLOUDY    63  60  90 S10       29.99S
WATERTOWN      SUNNY     61  59  93 SE8       30.03R
BROOKINGS      SUNNY     62  59  90 S8        30.05R
SISSETON         N/A     62  60  93 SE7       30.01R
$$

SDZ017-020-022-023-036>040-048>070-241400-
SOUTHEAST SOUTH DAKOTA

CITY           SKY/WX    TMP DP  RH WIND       PRES   REMARKS
SIOUX FALLS    CLOUDY    66  62  87 SE8       30.04S
HURON          MOSUNNY   64  60  87 SE12      30.00R
CHAMBERLAIN    SUNNY     66  63  89 E8        29.97S
MITCHELL       MOSUNNY   64  60  87 SE8       30.01S
YANKTON        MOSUNNY   62  60  93 E5        30.04R
$$

ABBREVIATIONS USED IN REMARKS
   TC - TEMPERATURE IN CELSIUS
  WCI - WIND CHILL INDEX
   HX - HEAT INDEX
  VSB - VISIBILITY





USA.gov is the U.S. government's official web portal to all federal, state and local government web resources and services.